Flag for U.S.A. Weather past 2 weeks in Boston, Massachusetts, U.S.A.

Now
79 °F

Passing clouds.


Feels Like: 79 °F
Forecast: 63 / 80 °F
Wind: 10 mph from West

Location: Logan International Airport

Current Time: Aug 29, 2015 at 1:28:46 PM

Latest Report: Aug 29, 2015 at 12:54 PM


Visibility: 10 mi

Pressure: 30.15 "Hg

Humidity: 42%

Dew point: 54 °F

Location of BostonLocation

Historic Weather in Boston — Graph

°F

Boston temperature yesterday

Maximum temperature yesterday: 74 °F (at 12:54 PM)
Minimum temperature yesterday: 64 °F (at 5:54 AM)
Average temperature yesterday: 70 °F

Past Weeks' High & Low Weather Summary

 TemperatureHumidityPressure
High90 °F (Aug 15, 3:54 PM)100% (Aug 20, 11:54 PM)30.19 "Hg (Aug 20, 11:54 PM)
Low64 °F (Aug 28, 5:54 AM)38% (Aug 14, 11:54 AM)29.83 "Hg (Aug 25, 5:54 PM)
Average74 °F76%30.02 "Hg
* Reported Aug 14 11:54 AM — Aug 29 11:54 AM, Boston, Weather by CustomWeather, © 2015

Note: Actual official high and low records may vary slightly from our data, if they occured in-between our weather recording intervals... More about our weather records

Advertising

Boston weather history for previous 24 hours

 ConditionsComfort  
Time TempWeatherWind HumidityBarometerVisibility
11:54 AM
Sat, Aug 29
79 °FScattered clouds.13 mph42%30.16 "Hg10 mi
10:54 AM78 °FPassing clouds.13 mph42%30.18 "Hg10 mi
9:54 AM76 °FSunny.7 mph45%30.19 "Hg10 mi
8:54 AM72 °FSunny.5 mph55%30.19 "Hg10 mi
7:54 AM70 °FPassing clouds.No wind61%30.19 "Hg10 mi
6:54 AM66 °FPassing clouds.7 mph68%30.18 "Hg10 mi
5:54 AM64 °FPassing clouds.3 mph75%30.16 "Hg10 mi
4:54 AM65 °FClear.3 mph76%30.16 "Hg10 mi
2:54 AM64 °FClear.5 mph78%30.16 "Hg10 mi
1:54 AM66 °FClear.5 mph75%30.16 "Hg10 mi
12:54 AM68 °FPassing clouds.5 mph68%30.17 "Hg10 mi
11:54 PM
Fri, Aug 28
71 °FPassing clouds.6 mph61%30.16 "Hg10 mi
10:54 PM71 °FPassing clouds.7 mph66%30.16 "Hg10 mi
9:54 PM69 °FPassing clouds.6 mph73%30.15 "Hg10 mi
8:54 PM69 °FPassing clouds.5 mph73%30.14 "Hg10 mi
7:54 PM70 °FScattered clouds.8 mph73%30.12 "Hg10 mi
6:54 PM71 °FScattered clouds.6 mph73%30.11 "Hg10 mi
5:54 PM72 °FPassing clouds.10 mph68%30.10 "Hg10 mi
4:54 PM72 °FScattered clouds.14 mph64%30.10 "Hg10 mi
3:54 PM74 °FScattered clouds.12 mph56%30.11 "Hg10 mi
2:54 PM74 °FScattered clouds.10 mph56%30.12 "Hg10 mi
1:54 PM74 °FScattered clouds.9 mph52%30.13 "Hg10 mi
Weather by CustomWeather, © 2015

See weather overviewHow to use our weather pages